{"data":{"norad_id":61849,"intl_designator":"2024-202E","name":"STARLINK-32346","alt_names":[],"object_type":"PAYLOAD","status":"ACTIVE","operator":null,"country":"US","launch_date":"2024-11-07","launch_site_code":"AFETR","launch_vehicle":null,"mission":null,"orbit_class":"UNKNOWN","rcs_meters":null,"size_class":null,"mass_kg":null,"dimensions":null,"purposes":["comms"],"wikipedia_slug":null,"has_3d_model":false,"image_url":null,"decayed_at":null,"tle_current":{"epoch":"2026-05-25T01:12:05.533056Z","epoch_age_seconds":66769,"freshness":"FRESH","line1":"1 61849U 24202E   26145.05006404 -.00000332  00000+0 -25537-5 0  9991","line2":"2 61849  43.0005 155.6995 0001021 270.4445  89.6289 15.27575956 87135","mean_motion":15.27575956,"eccentricity":0.0001021,"inclination_deg":43.0005,"raan_deg":155.6995,"arg_perigee_deg":270.4445,"mean_anomaly_deg":89.6289,"bstar":-2.5537e-6,"rev_number":8713,"period_min":94.266998268988,"perigee_km":482.36067692043,"apogee_km":483.76173359395,"semimajor_km":6861.1982052572,"source":"CELESTRAK","updated_at":"2026-05-25T13:38:19.450174Z"}}}